Location: Malanoce
(44.2500°N, 7.4667°E)
Time: 13:06:07
(UTC+00:00)

SJ-6F - Visible Passes

Search period start: 14 February 2026 00:00
Search period end: 24 February 2026 00:00
Orbit: 541 x 571 km, 97.9° (Epoch: 13 February)

Date Brightness Start Highest point End Pass type
(mag) Time Alt. Az. Time Alt. Az. Time Alt. Az.
14 Feb 6.6 05:53:28 10° NNE 05:56:59 31° E 06:00:29 10° SSE visible
14 Feb 6.7 18:15:27 10° SSW 18:18:50 27° W 18:22:14 10° NW visible
15 Feb 6.8 05:50:54 10° NE 05:54:20 29° E 05:57:47 10° SSE visible
15 Feb 6.5 18:12:45 10° SSW 18:16:12 29° W 18:19:40 10° NW visible
16 Feb 6.9 05:48:20 10° NE 05:51:42 27° E 05:55:04 10° SSE visible
16 Feb 6.4 18:10:02 10° SSW 18:13:33 31° W 18:17:05 10° NNW visible
17 Feb 7.1 05:45:46 10° NE 05:49:04 25° E 05:52:21 10° SSE visible
17 Feb 6.2 18:07:20 10° SSW 18:10:55 33° W 18:14:31 10° NNW visible
18 Feb 7.2 05:43:12 10° NE 05:46:24 23° E 05:49:37 10° SSE visible
18 Feb 6.1 18:04:38 10° SSW 18:08:15 36° W 18:11:54 10° NNW visible
19 Feb 7.3 05:40:38 10° NE 05:43:45 22° E 05:46:51 10° SSE visible
19 Feb 5.9 18:01:56 10° SSW 18:05:36 39° W 18:09:18 10° NNW visible
20 Feb 7.5 05:38:05 10° NE 05:41:05 21° E 05:44:05 10° SE visible
20 Feb 5.8 17:59:14 10° S 18:02:57 42° W 18:06:41 10° NNW visible
21 Feb 7.6 05:35:31 10° NE 05:38:25 19° E 05:41:18 10° SE visible
21 Feb 5.6 17:56:32 10° S 18:00:17 45° W 18:04:04 10° NNW visible
22 Feb 7.6 05:32:58 10° NE 05:35:44 18° E 05:38:30 10° SE visible
22 Feb 5.4 17:53:50 10° S 17:57:37 49° W 18:01:26 10° NNW visible
23 Feb 7.7 05:30:26 10° NE 05:33:03 17° E 05:35:40 10° SE visible
23 Feb 5.3 17:51:08 10° S 17:54:56 53° W 17:58:47 10° NNW visible
